Time,TemperatureF,DewpointF,PressureIn,WindDirection,WindDirectionDegrees,WindSpeedMPH,WindSpeedGustMPH,Humidity,HourlyPrecipIn,Conditions,Clouds,dailyrainin,SoftwareType,DateUTC
2017-12-15 00:00:00,23.6,5.0,30.00,West,272,3.0,9.0,44,0.00,,,0.00,weatherlink.com 1.10,2017-12-15 06:00:00,
2017-12-15 00:15:00,23.7,4.0,29.99,West,269,0.0,6.0,43,0.00,,,0.00,weatherlink.com 1.10,2017-12-15 06:15:00,
2017-12-15 00:30:00,23.9,4.0,29.98,West,272,6.0,12.0,42,0.00,,,0.00,weatherlink.com 1.10,2017-12-15 06:30:00,
2017-12-15 00:45:00,24.0,4.0,29.98,West,267,2.0,12.0,42,0.00,,,0.00,weatherlink.com 1.10,2017-12-15 06:45:00,
2017-12-15 01:00:00,24.2,4.0,29.98,West,275,4.0,12.0,42,0.00,,,0.00,weatherlink.com 1.10,2017-12-15 07:00:00,
2017-12-15 01:30:00,24.3,4.0,29.97,West,277,4.0,11.0,42,0.00,,,0.00,weatherlink.com 1.10,2017-12-15 07:30:00,
2017-12-15 01:45:00,24.4,4.0,29.97,West,269,5.0,12.0,41,0.00,,,0.00,weatherlink.com 1.10,2017-12-15 07:45:00,
2017-12-15 02:15:00,24.7,3.0,29.96,West,265,5.0,10.0,40,0.00,,,0.00,weatherlink.com 1.10,2017-12-15 08:15:00,
2017-12-15 02:30:00,24.8,5.0,29.96,West,273,6.0,14.0,42,0.00,,,0.00,weatherlink.com 1.10,2017-12-15 08:30:00,
2017-12-15 02:46:00,25.0,7.0,29.96,West,267,6.0,14.0,47,0.00,,,0.00,weatherlink.com 1.10,2017-12-15 08:46:00,
2017-12-15 03:00:00,25.2,10.0,29.96,WNW,286,2.0,14.0,52,0.00,,,0.00,weatherlink.com 1.10,2017-12-15 09:00:00,
2017-12-15 03:16:00,25.1,11.0,29.96,WSW,252,20.0,22.0,55,0.00,,,0.00,weatherlink.com 1.10,2017-12-15 09:16:00,
2017-12-15 03:30:00,25.1,10.0,29.96,West,272,6.0,12.0,54,0.00,,,0.00,weatherlink.com 1.10,2017-12-15 09:30:00,
2017-12-15 03:45:00,25.0,10.0,29.95,West,264,8.0,13.0,53,0.00,,,0.00,weatherlink.com 1.10,2017-12-15 09:45:00,
2017-12-15 04:01:00,25.0,10.0,29.95,West,270,9.0,10.0,53,0.00,,,0.00,weatherlink.com 1.10,2017-12-15 10:01:00,
2017-12-15 04:15:00,24.9,10.0,29.95,NW,307,3.0,13.0,53,0.00,,,0.00,weatherlink.com 1.10,2017-12-15 10:15:00,
2017-12-15 04:31:00,24.6,10.0,29.95,West,273,6.0,14.0,55,0.00,,,0.00,weatherlink.com 1.10,2017-12-15 10:31:00,
2017-12-15 04:46:00,24.5,11.0,29.94,WNW,286,4.0,18.0,56,0.00,,,0.00,weatherlink.com 1.10,2017-12-15 10:46:00,
2017-12-15 05:01:00,24.4,11.0,29.93,NW,311,2.0,13.0,56,0.00,,,0.00,weatherlink.com 1.10,2017-12-15 11:01:00,
2017-12-15 05:16:00,24.3,11.0,29.93,West,271,5.0,10.0,56,0.00,,,0.00,weatherlink.com 1.10,2017-12-15 11:16:00,
2017-12-15 05:31:00,23.8,10.0,29.93,West,268,7.0,12.0,55,0.00,,,0.00,weatherlink.com 1.10,2017-12-15 11:31:00,
2017-12-15 05:46:00,23.5,9.0,29.94,NW,304,1.0,9.0,53,0.00,,,0.00,weatherlink.com 1.10,2017-12-15 11:46:00,
2017-12-15 06:01:00,23.4,7.0,29.94,West,267,8.0,9.0,50,0.00,,,0.00,weatherlink.com 1.10,2017-12-15 12:01:00,
2017-12-15 06:16:00,23.4,6.0,29.94,NW,304,1.0,8.0,48,0.00,,,0.00,weatherlink.com 1.10,2017-12-15 12:16:00,
2017-12-15 06:31:00,23.6,5.0,29.94,NW,308,1.0,9.0,46,0.00,,,0.00,weatherlink.com 1.10,2017-12-15 12:31:00,
2017-12-15 06:46:00,23.7,5.0,29.93,West,275,4.0,10.0,44,0.00,,,0.00,weatherlink.com 1.10,2017-12-15 12:46:00,
2017-12-15 07:01:00,23.8,4.0,29.93,West,271,6.0,9.0,42,0.00,,,0.00,weatherlink.com 1.10,2017-12-15 13:01:00,
2017-12-15 07:16:00,24.1,4.0,29.93,West,278,3.0,9.0,43,0.00,,,0.00,weatherlink.com 1.10,2017-12-15 13:16:00,
2017-12-15 07:31:00,24.4,5.0,29.93,WNW,298,5.0,7.0,43,0.00,,,0.00,weatherlink.com 1.10,2017-12-15 13:31:00,
2017-12-15 07:46:00,24.5,5.0,29.92,WSW,254,0.0,5.0,43,0.00,,,0.00,weatherlink.com 1.10,2017-12-15 13:46:00,
2017-12-15 08:01:00,24.6,5.0,29.92,SW,215,1.0,5.0,44,0.00,,,0.00,weatherlink.com 1.10,2017-12-15 14:01:00,
2017-12-15 08:16:00,24.9,6.0,29.92,WSW,243,1.0,5.0,44,0.00,,,0.00,weatherlink.com 1.10,2017-12-15 14:16:00,
2017-12-15 08:31:00,25.1,6.0,29.92,WSW,252,0.0,5.0,44,0.00,,,0.00,weatherlink.com 1.10,2017-12-15 14:31:00,
2017-12-15 08:46:00,25.3,6.0,29.92,South,175,1.0,3.0,43,0.00,,,0.00,weatherlink.com 1.10,2017-12-15 14:46:00,
2017-12-15 09:01:00,25.5,6.0,29.92,SSW,195,0.0,2.0,43,0.00,,,0.00,weatherlink.com 1.10,2017-12-15 15:01:00,
2017-12-15 09:16:00,25.7,5.0,29.92,SW,221,0.0,5.0,42,0.00,,,0.00,weatherlink.com 1.10,2017-12-15 15:16:00,
2017-12-15 09:31:00,26.2,6.0,29.92,WSW,239,0.0,4.0,42,0.00,,,0.00,weatherlink.com 1.10,2017-12-15 15:31:00,
2017-12-15 09:46:00,26.5,7.0,29.92,SSW,200,0.0,6.0,44,0.00,,,0.00,weatherlink.com 1.10,2017-12-15 15:46:00,
2017-12-15 10:01:00,26.7,7.0,29.92,SW,231,0.0,6.0,44,0.00,,,0.00,weatherlink.com 1.10,2017-12-15 16:01:00,
2017-12-15 10:17:00,27.3,7.0,29.92,SW,228,2.0,4.0,42,0.00,,,0.00,weatherlink.com 1.10,2017-12-15 16:17:00,
2017-12-15 10:31:00,27.5,7.0,29.91,SW,215,0.0,6.0,42,0.00,,,0.00,weatherlink.com 1.10,2017-12-15 16:31:00,
2017-12-15 10:46:00,27.9,6.0,29.91,South,187,1.0,5.0,39,0.00,,,0.00,weatherlink.com 1.10,2017-12-15 16:46:00,
2017-12-15 11:02:00,28.3,4.0,29.90,SSW,202,0.0,4.0,36,0.00,,,0.00,weatherlink.com 1.10,2017-12-15 17:02:00,
2017-12-15 11:16:00,28.8,4.0,29.90,WSW,249,2.0,6.0,35,0.00,,,0.00,weatherlink.com 1.10,2017-12-15 17:16:00,
2017-12-15 11:31:00,29.0,2.0,29.89,WSW,254,0.0,6.0,32,0.00,,,0.00,weatherlink.com 1.10,2017-12-15 17:31:00,
2017-12-15 11:46:00,29.3,3.0,29.89,WSW,242,2.0,6.0,32,0.00,,,0.00,weatherlink.com 1.10,2017-12-15 17:46:00,
2017-12-15 12:01:00,29.8,2.0,29.88,SSE,156,1.0,7.0,30,0.00,,,0.00,weatherlink.com 1.10,2017-12-15 18:01:00,
2017-12-15 12:16:00,30.0,1.0,29.87,SSW,198,0.0,6.0,29,0.00,,,0.00,weatherlink.com 1.10,2017-12-15 18:16:00,
2017-12-15 12:32:00,30.3,-1.0,29.86,SSW,196,0.0,9.0,26,0.00,,,0.00,weatherlink.com 1.10,2017-12-15 18:32:00,
2017-12-15 12:46:00,30.5,-1.0,29.86,West,273,6.0,6.0,26,0.00,,,0.00,weatherlink.com 1.10,2017-12-15 18:46:00,
2017-12-15 13:01:00,30.8,-2.0,29.86,SSW,213,2.0,7.0,24,0.00,,,0.00,weatherlink.com 1.10,2017-12-15 19:01:00,
2017-12-15 13:17:00,30.9,-4.0,29.84,SW,215,1.0,10.0,22,0.00,,,0.00,weatherlink.com 1.10,2017-12-15 19:17:00,
2017-12-15 13:32:00,31.1,-5.0,29.84,WSW,247,7.0,9.0,21,0.00,,,0.00,weatherlink.com 1.10,2017-12-15 19:32:00,
2017-12-15 13:47:00,31.1,-5.0,29.84,West,259,2.0,9.0,21,0.00,,,0.00,weatherlink.com 1.10,2017-12-15 19:47:00,
2017-12-15 14:02:00,31.4,-5.0,29.84,WSW,238,1.0,6.0,21,0.00,,,0.00,weatherlink.com 1.10,2017-12-15 20:02:00,
2017-12-15 14:17:00,31.5,-4.0,29.84,West,269,0.0,5.0,21,0.00,,,0.00,weatherlink.com 1.10,2017-12-15 20:17:00,
2017-12-15 14:32:00,31.7,-4.0,29.84,West,263,0.0,4.0,21,0.00,,,0.00,weatherlink.com 1.10,2017-12-15 20:32:00,
2017-12-15 14:47:00,31.6,-5.0,29.83,WNW,285,0.0,2.0,20,0.00,,,0.00,weatherlink.com 1.10,2017-12-15 20:47:00,
2017-12-15 15:02:00,31.8,-6.0,29.83,WSW,258,2.0,4.0,19,0.00,,,0.00,weatherlink.com 1.10,2017-12-15 21:02:00,
2017-12-15 15:18:00,31.9,-6.0,29.82,South,190,3.0,6.0,19,0.00,,,0.00,weatherlink.com 1.10,2017-12-15 21:18:00,
2017-12-15 15:32:00,31.8,-10.0,29.82,SSW,205,2.0,6.0,16,0.00,,,0.00,weatherlink.com 1.10,2017-12-15 21:32:00,
2017-12-15 15:48:00,31.7,-26.0,29.83,SW,215,0.0,9.0,7,0.00,,,0.00,weatherlink.com 1.10,2017-12-15 21:48:00,
2017-12-15 16:02:00,31.5,-36.0,29.83,SW,215,4.0,4.0,4,0.00,,,0.00,weatherlink.com 1.10,2017-12-15 22:02:00,
2017-12-15 16:32:00,31.4,-41.0,29.83,South,189,3.0,6.0,3,0.00,,,0.00,weatherlink.com 1.10,2017-12-15 22:32:00,
2017-12-15 16:48:00,31.4,-48.0,29.83,South,184,1.0,7.0,2,0.00,,,0.00,weatherlink.com 1.10,2017-12-15 22:48:00,
2017-12-15 17:03:00,31.5,-59.0,29.83,South,179,0.0,6.0,1,0.00,,,0.00,weatherlink.com 1.10,2017-12-15 23:03:00,
2017-12-15 17:18:00,31.6,-99.9,29.83,South,183,5.0,5.0,0,0.00,,,0.00,weatherlink.com 1.10,2017-12-15 23:18:00,
2017-12-15 17:33:00,31.7,-99.9,29.83,South,183,2.0,5.0,0,0.00,,,0.00,weatherlink.com 1.10,2017-12-15 23:33:00,
2017-12-15 17:48:00,31.8,-99.9,29.83,South,181,4.0,5.0,0,0.00,,,0.00,weatherlink.com 1.10,2017-12-15 23:48:00,
2017-12-15 18:03:00,31.7,-99.9,29.82,South,173,0.0,5.0,0,0.00,,,0.00,weatherlink.com 1.10,2017-12-16 00:03:00,
2017-12-15 18:18:00,31.7,-99.9,29.83,South,190,1.0,7.0,0,0.00,,,0.00,weatherlink.com 1.10,2017-12-16 00:18:00,
2017-12-15 18:33:00,31.8,-99.9,29.83,South,171,6.0,7.0,0,0.00,,,0.00,weatherlink.com 1.10,2017-12-16 00:33:00,
2017-12-15 18:49:00,31.7,-99.9,29.83,SSE,154,4.0,7.0,0,0.00,,,0.00,weatherlink.com 1.10,2017-12-16 00:49:00,
2017-12-15 19:04:00,31.6,-99.9,29.82,ESE,116,4.0,6.0,0,0.00,,,0.00,weatherlink.com 1.10,2017-12-16 01:04:00,
2017-12-15 19:33:00,31.7,-99.9,29.83,ESE,122,2.0,5.0,0,0.00,,,0.00,weatherlink.com 1.10,2017-12-16 01:33:00,
2017-12-15 19:49:00,31.7,-99.9,29.83,South,170,3.0,9.0,0,0.00,,,0.00,weatherlink.com 1.10,2017-12-16 01:49:00,
2017-12-15 20:04:00,31.7,-99.9,29.82,SSE,155,2.0,7.0,0,0.00,,,0.00,weatherlink.com 1.10,2017-12-16 02:04:00,
2017-12-15 20:19:00,31.6,-99.9,29.81,SSE,152,4.0,6.0,0,0.00,,,0.00,weatherlink.com 1.10,2017-12-16 02:19:00,
2017-12-15 20:34:00,31.6,-99.9,29.81,SSE,164,4.0,5.0,0,0.00,,,0.00,weatherlink.com 1.10,2017-12-16 02:34:00,